GW6176 Weather Reports


time (UTC)temp
F
wind
direction
speed
knots
gust
knots
rain 1hr
in
rain 24hr
in
rain mn
in
humidity
%
barometer
mb
20260504215337 75 212 14.8 27.8 0.00 0.00 0.00 41 1002.9
20260504214834 76 224 15.6 23.5 0.00 0.00 0.00 41 1002.9
20260504214331 76 215 18.2 22.6 0.00 0.00 0.00 40 1002.8
20260504213827 76 216 14.8 33.0 0.00 0.00 0.00 41 1003.0
20260504213323 75 217 15.6 32.2 0.00 0.00 0.00 41 1003.0
20260504212821 76 227 21.7 28.7 0.00 0.00 0.00 41 1003.0
20260504212317 76 223 13.0 22.6 0.00 0.00 0.00 42 1002.8
20260504211815 76 218 9.6 28.7 0.00 0.00 0.00 42 1003.0
20260504211310 75 199 12.2 21.7 0.00 0.00 0.00 42 1002.9
20260504210808 76 218 26.1 29.5 0.00 0.00 0.00 41 1003.1
20260504210305 76 212 23.5 24.3 0.00 0.00 0.00 41 1002.8
20260504205803 76 230 12.2 20.9 0.00 0.00 0.00 43 1002.7
20260504205300 76 195 18.2 26.9 0.00 0.00 0.00 42 1002.9
20260504204758 76 226 12.2 25.2 0.00 0.00 0.00 43 1003.0
20260504204256 76 233 14.8 24.3 0.00 0.00 0.00 44 1003.2
20260504203755 76 209 19.1 20.9 0.00 0.00 0.00 43 1003.1
20260504203252 76 223 20.0 21.7 0.00 0.00 0.00 42 1002.8
20260504202752 76 266 6.1 21.7 0.00 0.00 0.00 45 1002.9
20260504202250 76 234 14.8 24.3 0.00 0.00 0.00 44 1003.1
20260504201747 76 217 18.2 20.0 0.00 0.00 0.00 44 1002.9
20260504201244 75 212 18.2 21.7 0.00 0.00 0.00 44 1003.2
20260504200742 76 234 13.0 26.9 0.00 0.00 0.00 44 1003.3
20260504200237 76 221 8.7 23.5 0.00 0.00 0.00 44 1003.2
20260504195734 75 215 22.6 23.5 0.00 0.00 0.00 45 1003.3
20260504195230 75 202 16.5 22.6 0.00 0.00 0.00 44 1003.6
20260504194727 75 213 12.2 23.5 0.00 0.00 0.00 45 1003.3
20260504194223 75 210 16.5 18.2 0.00 0.00 0.00 45 1003.9
20260504193720 74 215 26.1 34.8 0.00 0.00 0.00 44 1003.8
20260504193218 75 217 17.4 27.8 0.00 0.00 0.00 44 1004.1
20260504192716 74 219 20.0 24.3 0.00 0.00 0.00 44 1004.1
20260504192213 75 202 20.9 30.4 0.00 0.00 0.00 44 1004.0
20260504191712 75 206 10.4 22.6 0.00 0.00 0.00 45 1003.9
20260504191208 75 210 11.3 23.5 0.00 0.00 0.00 46 1003.9
20260504190703 75 207 18.2 32.2 0.00 0.00 0.00 44 1003.7
20260504190200 75 235 16.5 23.5 0.00 0.00 0.00 46 1003.9
20260504185657 75 187 12.2 25.2 0.00 0.00 0.00 46 1003.9
20260504185153 75 220 18.2 24.3 0.00 0.00 0.00 46 1003.6
20260504184649 74 199 14.8 20.9 0.00 0.00 0.00 47 1004.2
20260504184144 74 210 20.0 22.6 0.00 0.00 0.00 46 1004.0
20260504183642 74 206 12.2 25.2 0.00 0.00 0.00 48 1004.2
20260504183139 74 183 13.0 20.9 0.00 0.00 0.00 48 1004.0
20260504182637 74 197 13.9 21.7 0.00 0.00 0.00 49 1004.2
20260504182134 73 219 14.8 21.7 0.00 0.00 0.00 49 1004.3
20260504181631 74 208 19.1 23.5 0.00 0.00 0.00 49 1004.1
20260504181129 73 176 13.9 24.3 0.00 0.00 0.00 51 1004.4
20260504180628 73 215 11.3 20.0 0.00 0.00 0.00 51 1004.3
20260504180126 73 207 13.0 20.9 0.00 0.00 0.00 51 1004.2
20260504175623 73 216 13.0 25.2 0.00 0.00 0.00 49 1004.3
20260504175120 73 195 9.6 22.6 0.00 0.00 0.00 49 1004.4
20260504174618 72 182 8.7 22.6 0.00 0.00 0.00 51 1004.4
20260504174114 73 206 7.8 13.0 0.00 0.00 0.00 52 1004.7
20260504173611 71 156 8.7 21.7 0.00 0.00 0.00 51 1004.7
20260504173109 72 193 6.1 13.9 0.00 0.00 0.00 53 1004.9
20260504172605 71 186 8.7 16.5 0.00 0.00 0.00 51 1004.7
20260504172102 71 217 11.3 17.4 0.00 0.00 0.00 51 1005.0
20260504171558 71 180 9.6 20.0 0.00 0.00 0.00 52 1005.1
20260504171055 70 214 7.8 12.2 0.00 0.00 0.00 51 1005.3
20260504170551 71 204 10.4 16.5 0.00 0.00 0.00 50 1005.4
20260504150935 66 212 7.8 10.4 0.00 0.00 0.00 54 1006.6
20260504150432 66 221 8.7 12.2 0.00 0.00 0.00 53 1006.5
20260504140858 62 217 7.8 11.3 0.00 0.00 0.00 60 1006.9
20260504140354 61 222 9.6 10.4 0.00 0.00 0.00 60 1007.0
20260504130319 57 191 6.1 10.4 0.00 0.00 0.00 66 1007.4
20260504120243 54 189 6.1 8.7 0.00 0.00 0.00 69 1007.6
20260504110710 50 182 5.2 7.8 0.00 0.00 0.00 75 1007.3
20260504110206 50 179 3.5 7.8 0.00 0.00 0.00 75 1007.7
20260504100130 50 181 3.5 6.1 0.00 0.00 0.00 74 1007.2
20260504081523 49 178 4.3 7.8 0.00 0.00 0.00 77 1007.8
20260504081019 48 174 3.5 7.0 0.00 0.00 0.00 77 1008.0
20260504080516 48 170 3.5 7.0 0.00 0.00 0.00 77 1007.9
20260504050334 49 168 3.5 7.0 0.00 0.00 0.00 75 1009.7
20260504045832 49 150 3.5 6.1 0.00 0.00 0.00 75 1009.9
20260504045332 49 162 4.3 7.8 0.00 0.00 0.00 75 1010.2
20260504044829 49 158 5.2 7.8 0.00 0.00 0.00 75 1009.7
20260504044326 49 149 5.2 9.6 0.00 0.00 0.00 75 1009.9
20260504043824 49 144 5.2 10.4 0.00 0.00 0.00 75 1010.1
20260504043320 49 161 2.6 7.8 0.00 0.00 0.00 75 1009.9
20260504042818 49 162 4.3 8.7 0.00 0.00 0.00 75 1010.0
20260504042314 49 155 4.3 5.2 0.00 0.00 0.00 75 1010.1
20260504041810 49 158 4.3 7.0 0.00 0.00 0.00 75 1010.3
20260504041306 49 148 4.3 5.2 0.00 0.00 0.00 75 1010.1
20260504040803 49 153 3.5 5.2 0.00 0.00 0.00 75 1010.2
20260504040300 49 167 5.2 7.0 0.00 0.00 0.00 76 1010.3
20260504035756 49 175 3.5 6.1 0.00 0.00 0.00 76 1010.2
20260504035254 49 156 4.3 6.1 0.00 0.00 0.00 76 1010.3
20260504034751 48 171 7.8 8.7 0.00 0.00 0.00 77 1010.3
20260504034248 48 178 3.5 5.2 0.00 0.00 0.00 77 1010.5
20260504033745 48 147 3.5 6.1 0.00 0.00 0.00 77 1010.5
20260504033243 48 147 5.2 7.8 0.00 0.00 0.00 78 1010.6
20260504032740 48 151 2.6 4.3 0.00 0.00 0.00 78 1010.8
20260504032237 48 139 3.5 6.1 0.00 0.00 0.00 78 1010.7
20260504031733 48 158 4.3 5.2 0.00 0.00 0.00 78 1010.6
20260504031231 48 167 3.5 6.1 0.00 0.00 0.00 79 1010.7
20260504030726 48 139 5.2 6.1 0.00 0.00 0.00 79 1010.6
20260504030224 48 146 3.5 7.0 0.00 0.00 0.00 79 1010.7
20260504025720 48 127 6.1 6.1 0.00 0.00 0.00 79 1010.8
20260504025217 48 153 5.2 7.8 0.00 0.00 0.00 79 1010.7
20260504024714 48 142 5.2 7.8 0.00 0.00 0.00 79 1011.0
20260504024211 48 147 5.2 9.6 0.00 0.00 0.00 78 1011.0
20260504023708 48 140 6.1 11.3 0.00 0.00 0.00 78 1011.0
20260504023203 48 137 6.1 9.6 0.00 0.00 0.00 78 1011.1
20260504022700 48 154 2.6 7.0 0.00 0.00 0.00 78 1011.0
20260504022156 48 148 6.1 9.6 0.00 0.00 0.00 78 1011.0
20260504021654 49 152 7.0 7.8 0.00 0.00 0.00 78 1011.2
20260504021150 49 172 5.2 10.4 0.00 0.00 0.00 77 1011.2
20260504020647 49 141 6.1 8.7 0.00 0.00 0.00 77 1011.0
20260504020143 49 156 7.8 7.8 0.00 0.00 0.00 77 1011.1
20260504015640 49 164 9.6 11.3 0.00 0.00 0.00 77 1011.1
20260504015137 49 163 3.5 9.6 0.00 0.00 0.00 76 1011.0
20260504014632 49 169 4.3 8.7 0.00 0.00 0.00 76 1011.0
20260504014130 49 164 6.1 9.6 0.00 0.00 0.00 75 1011.1
20260504013627 49 156 4.3 7.8 0.00 0.00 0.00 75 1010.9
20260504013124 50 142 5.2 9.6 0.00 0.00 0.00 74 1011.0
20260504012621 50 135 7.8 9.6 0.00 0.00 0.00 74 1011.3
20260504012120 50 107 3.5 13.0 0.00 0.00 0.00 73 1011.0
20260504011616 50 155 11.3 14.8 0.00 0.00 0.00 74 1011.2
20260504011112 50 161 6.1 11.3 0.00 0.00 0.00 73 1011.2
20260504010608 50 149 6.1 7.0 0.00 0.00 0.00 73 1011.1
20260504010104 50 139 5.2 10.4 0.00 0.00 0.00 73 1011.2
20260504005601 50 179 5.2 11.3 0.00 0.00 0.00 73 1011.2
20260504005058 50 155 5.2 11.3 0.00 0.00 0.00 73 1011.2
20260504004556 50 153 4.3 10.4 0.00 0.00 0.00 74 1011.1
20260504004053 50 156 5.2 11.3 0.00 0.00 0.00 74 1011.1
20260504003549 50 137 8.7 13.0 0.00 0.00 0.00 74 1011.4
20260504003046 50 156 7.8 13.9 0.00 0.00 0.00 74 1011.2
20260504002542 50 180 5.2 8.7 0.00 0.00 0.00 74 1011.4
20260504002040 50 145 6.1 8.7 0.00 0.00 0.00 74 1011.4
20260504001538 50 164 5.2 10.4 0.00 0.00 0.00 74 1011.3
20260504001034 50 157 7.0 8.7 0.00 0.00 0.00 75 1011.5
20260504000531 50 149 5.2 11.3 0.00 0.00 0.00 74 1011.4
20260504000029 50 154 7.8 13.0 0.00 0.00 0.00 74 1011.7
20260503235527 50 128 6.1 8.7 0.00 0.00 0.00 74 1011.7
20260503235023 50 143 4.3 14.8 0.00 0.00 0.00 73 1011.8
20260503234521 50 151 7.8 12.2 0.00 0.00 0.00 73 1011.9
20260503234019 50 172 6.1 12.2 0.00 0.00 0.00 72 1011.8
20260503233515 50 148 4.3 13.9 0.00 0.00 0.00 72 1011.9
20260503233011 50 176 7.8 12.2 0.00 0.00 0.00 72 1011.9
20260503232508 50 170 4.3 10.4 0.00 0.00 0.00 72 1011.8
20260503232006 50 140 13.0 15.6 0.00 0.00 0.00 72 1011.9
20260503231504 51 137 8.7 13.9 0.00 0.00 0.00 72 1012.2
20260503231000 51 185 8.7 10.4 0.00 0.00 0.00 71 1012.0
20260503230456 51 128 8.7 14.8 0.00 0.00 0.00 72 1012.1
20260503225954 50 151 13.0 14.8 0.00 0.00 0.00 73 1012.2
20260503225450 50 142 9.6 12.2 0.00 0.00 0.00 74 1012.4
20260503224946 50 175 5.2 12.2 0.00 0.00 0.00 74 1012.1
20260503224443 50 162 8.7 10.4 0.00 0.00 0.00 75 1012.4
20260503223941 50 145 8.7 9.6 0.00 0.00 0.00 75 1012.4
20260503223439 50 147 12.2 13.0 0.00 0.00 0.00 75 1012.3
20260503222934 50 143 7.8 13.9 0.00 0.00 0.00 75 1012.6
20260503222433 50 175 7.8 7.8 0.00 0.00 0.00 75 1012.6
20260503221931 50 147 6.1 12.2 0.00 0.00 0.00 75 1012.7
20260503221429 50 205 6.1 11.3 0.00 0.00 0.00 76 1012.6
20260503220925 50 164 5.2 12.2 0.00 0.00 0.00 76 1012.8
20260503220421 50 199 5.2 9.6 0.00 0.00 0.00 75 1012.8
20260503215919 50 173 8.7 13.0 0.00 0.00 0.00 75 1012.5